Regional Weather Roundup
Issued by NWS

Home | Current Version | Previous Version | Text Only | Print | Product List | Glossary Off
Versions: 1 2 3 4 5 6 7 8 9 10 11 12 13 14 15 16 17 18 19 20 21 22 23 24 25 26 27 28 29 30 31 32 33 34 35 36 37 38 39 40 41 42 43 44 45 46 47 48 49 50

000
ASUS45 KSLC 052010
RWRUT

UTAH REGIONAL WEATHER ROUNDUP
NATIONAL WEATHER SERVICE SALT LAKE CITY UT
100 PM MST THU MAR 05 2015

UTZ001>011-023>025-052100-

NORTHERN UTAH

CITY           SKY/WX    TMP DP  RH WIND       PRES   REMARKS
BRIGHAM CITY   SUNNY     40  21  47 NE3       30.45F
HILL AFB       SUNNY     41  15  35 SE1       30.42F
LOGAN          SUNNY     41  19  41 CALM      30.42
OGDEN          SUNNY     43  17  35 E5        30.43F
PROVO AIRPORT  NOT AVBL
SALT LAKE CITY MOSUNNY   44  21  40 S7        30.43F
VERNAL         MOSUNNY   33  18  53 CALM      30.39F
WENDOVER       SUNNY     41  21  45 E6        30.43F
HEBER CITY     MOSUNNY   34  19  55 CALM      30.42F
WEST JORDAN    SUNNY     43  21  42 SE6       30.43F

$$

UTZ012>022-026-027-052100-

SOUTHERN/CENTRAL UTAH

CITY           SKY/WX    TMP DP  RH WIND       PRES   REMARKS
BLANDING       SUNNY     39  19  44 S5        30.46F
BRYCE CANYON   SUNNY     30  12  47 N5        30.38F WCI  25
CEDAR CITY     SUNNY     35   4  27 CALM      30.39F
DELTA          SUNNY     41  20  42 CALM      30.43F
HANKSVILLE     SUNNY     45  18  33 SE3       30.43F
MILFORD        SUNNY     42  19  39 VRB5      30.41F
MOAB/CYNLANDS  SUNNY     43  17  35 VRB3      30.39F
PRICE          SUNNY     38  15  39 S3        30.38F
ST GEORGE      PTCLDY    48  27  43 CALM      30.42F
KANAB          SUNNY     46  18  31 CALM      30.42F

$$

REGIONAL REPORTS     COLORADO/ARIZONA

CITY           SKY/WX    TMP DP  RH WIND       PRES   REMARKS
CRAIG, CO      MOSUNNY   31  12  45 E8        30.37F WCI  23
GRAND JUNCTION SUNNY     40  10  29 CALM      30.40F
RIFLE          SUNNY     37  13  37 W9        30.38F WCI  30
MONTROSE       SUNNY     38  16  40 VRB3      30.40F
CORTEZ         SUNNY     43  17  35 NW8       30.37F
PAGE, AZ       SUNNY     47  22  37 NE6       30.40F
GRAND CANYON   SUNNY     44  18  35 SW7       30.38F
KINGMAN        SUNNY     58  24  27 VRB7      30.33
FLAGSTAFF      SUNNY     42   9  25 NE6       30.37F

$$

REGIONAL REPORTS    NEVADA/IDAHO/WYOMING

CITY           SKY/WX    TMP DP  RH WIND       PRES   REMARKS
LAS VEGAS, NV  SUNNY     59  21  23 VRB3      30.34F
ELY            SUNNY     47   9  21 MISG      30.39F
ELKO           SUNNY     48  11  22 SW10      30.40F
POCATELLO, ID  SUNNY     46  16  30 W14G24    30.40S
BURLEY         SUNNY     48  14  25 W7        30.37F
EVANSTON, WY   MOSUNNY   33  15  47 W18       30.36F WCI  22
ROCK SPRINGS   MOSUNNY   32  18  56 W23       30.28F WCI  19

$$


USA.gov is the U.S. government's official web portal to all federal, state and local government web resources and services.